Regional Weather Roundup
Issued by NWS

Home | Current Version | Previous Version | Graphics & Text | Print | Product List | Glossary On
Versions: 1 2 3 4 5 6 7 8 9 10 11 12 13 14 15 16 17 18 19 20 21 22 23 24 25 26 27
000
ASUS45 KPSR 251610
RWRAZ

ARIZONA HOURLY REGIONAL WEATHER ROUNDUP
NATIONAL WEATHER SERVICE PHOENIX AZ
900 AM MST WED MAY 25 2016

NOTE: FAIR INDICATES FEW OR NO CLOUDS BELOW 12,000 FEET WITH NO
SIGNIFICANT WEATHER AND/OR OBSTRUCTIONS TO VISIBILITY.

AZZ001>003-036-251700-
NORTHWEST ARIZONA

CITY           SKY/WX    TMP DP  RH WIND       PRES   REMARKS
BULLHEAD CITY  SUNNY     73  36  25 S9        29.95F
KINGMAN        SUNNY     67  25  20 W12       30.01S
$$

AZZ004>008-015-016-018-251700-
NORTH CENTRAL ARIZONA

CITY           SKY/WX    TMP DP  RH WIND       PRES   REMARKS
GRAND CANYON   SUNNY     55  17  22 S10G17    30.14R
WILLIAMS       SUNNY     55  18  22 S8G18     30.21S
PRESCOTT       SUNNY     62  26  25 SW10      30.09S
FLAGSTAFF        N/A     53  24  32 MISG      30.15R
PAYSON         SUNNY     64  23  20 S8G17     30.13S
PAGE           SUNNY     65  19  17 NW3       30.05S
$$

AZZ009>014-017-251700-
NORTHEAST ARIZONA

CITY           SKY/WX    TMP DP  RH WIND       PRES   REMARKS
WINSLOW        SUNNY     64  27  24 E7        30.10F
SAINT JOHNS    SUNNY     62  25  24 CALM      30.13S
WINDOW ROCK    SUNNY     61  21  21 SW13      30.17S
SHOW LOW       SUNNY     59  23  25 S22       30.17S
$$

AZZ023-251700-
GREATER PHOENIX AREA

CITY           SKY/WX    TMP DP  RH WIND       PRES   REMARKS
PHOENIX        SUNNY     75  30  19 NE5       29.95S
BUCKEYE        SUNNY     73  32  21 SW6       29.97S
GLENDALE       SUNNY     75  32  20 CALM      29.97S
LUKE AFB       SUNNY     75  33  22 S5        29.95S
DEER VALLEY    SUNNY     74  29  19 VRB5      29.97R
SCOTTSDALE     SUNNY     74  25  16 CALM      29.98F
MESA-GATEWAY   SUNNY     75  30  19 E3        29.98S
CHANDLER       SUNNY     77  30  18 S6        29.97R
$$

AZZ027-028-251700-
SOUTHWEST MARICOPA COUNTY AND PINAL COUNTY

CITY           SKY/WX    TMP DP  RH WIND       PRES   REMARKS
CASA GRANDE    SUNNY     75  37  25 S5        29.99S
GILA BEND      SUNNY     76  30  18 W2        29.94F
$$

AZZ503-504-507>509-251700-
SOUTHEAST ARIZONA

CITY           SKY/WX    TMP DP  RH WIND       PRES   REMARKS
TUCSON         SUNNY     77  34  21 S12       30.04S
DAVIS-MONTHAN  SUNNY     75  34  22 S7        30.03R
RYAN FIELD     SUNNY     73  34  23 N3        30.03S
NOGALES        SUNNY     73  29  19 SE10      30.08S
SIERRA VISTA   SUNNY     71  20  14 VRB1      30.12S
DOUGLAS        SUNNY     74  26  16 S14       30.10F
SAFFORD        SUNNY     76  27  16 E10       30.02F
$$

AZZ020-021-025-026-031-251700-
SOUTHWEST ARIZONA

CITY           SKY/WX    TMP DP  RH WIND       PRES   REMARKS
YUMA           SUNNY     71  39  31 NW12      29.96R
$$

CAZ031-033-041-043-047-048-061-251700-
SOUTHERN CALIFORNIA

CITY           SKY/WX    TMP DP  RH WIND       PRES   REMARKS
DOWNTOWN L.A.  CLOUDY    62  52  69 CALM      30.07R
L.A. AIRPORT   PTSUNNY   61  51  70 W6        30.08R
SAN DIEGO      PTSUNNY   65  50  58 W6        30.10R
BURBANK        CLOUDY    59  49  69 CALM      30.07R
ONTARIO        MOSUNNY   61  46  57 SW5       30.06S
RIVERSIDE      MOSUNNY   61  47  59 SW6       30.07S
PALM SPRINGS   SUNNY     70  41  34 W21G29    29.97R
EL CENTRO NAS  SUNNY     71  38  29 W17       29.98S
IMPERIAL       SUNNY     71  41  33 W13       29.96R
BLYTHE         SUNNY     69  46  43 S6        29.95R
NEEDLES        SUNNY     74  38  27 CALM      29.93S
$$

NVZ020-UTZ003-251700-
SOUTHERN NEVADA-UTAH

CITY           SKY/WX    TMP DP  RH WIND       PRES   REMARKS
LAS VEGAS      MOSUNNY   69  35  28 CALM      29.93R
SALT LAKE CITY PTSUNNY   60  40  47 NW6       30.03R
$$

NMZ009-TXZ055-251700-
NEW MEXICO-WEST TEXAS

CITY           SKY/WX    TMP DP  RH WIND       PRES   REMARKS
ALBUQUERQUE    SUNNY     68  15  13 N6        30.15S
EL PASO        SUNNY     79  31  17 SW7G16    30.09F
$$


........................KEY........................
SKY/WX - SKY CONDITION/WEATHER
TMP    - TEMPERATURE IN FAHRENHEIT
DP     - DEW POINT IN FAHRENHEIT
RH     - RELATIVE HUMIDITY IN PERCENT
WIND   - DIRECTION AND SPEED IN MILES PER HOUR (MPH)
VRB    - VARIABLE WIND DIRECTION
PRES   - MEAN SEA LEVEL PRESSURE IN INCHES OF MERCURY
         F - FALLING PRESSURE   R - RISING PRESSURE
         S - STEADY PRESSURE
VSB    - VISIBILITY IN MILES
HX     - HEAT INDEX IN FAHRENHEIT
WCI    - WIND CHILL INDEX IN FAHRENHEIT
TC     - TEMPERATURE IN CELSIUS WHICH IS ALSO KNOWN AS
         TEMPERATURE IN CENTIGRADE
AFB    - AIR FORCE BASE
         LUKE AFB IS LUKE AIR FORCE BASE
         DAVIS-MONTHAN IS DAVIS-MONTHAN AIR FORCE BASE
NAS    - NAVAL AIR STATION
         EL CENTRO NAS IS EL CENTRO NAVAL AIR STATION
N/A    - NOT AVAILABLE





USA.gov is the U.S. government's official web portal to all federal, state and local government web resources and services.